STARLINK-35425, 65874

Orbit data source: Space-Track

STARLINK-35425, 65874 is a payload satellite owned by SpaceX/Seattle (US) in LEO that was launched on Fri, 03 Oct 2025 UTC via an FALCON 9 launch vehicle from the Air Force Western Test Range (AFWTR). Payload-class satellites include a variety of spacecraft equipped with specific instruments for various scientific and technological missions. These include communications satellites like Starlink; space stations such as the ISS; scientific satellites like the Hubble; Earth observation satellites from companies like Planet Labs, Umbra, and HawkEye 360; GPS; miniature CubeSats for education and research; and military/defense satellites.

Loading next visibility...
Identifier
65874, 2025-223W
Orbit
LEO
Country
Flag of USUS
Related business
Manufacturer
SpaceX/Seattle
Mission
Operational spacecraft
Bus & Motor
STARLINK V2MO, Unknown motor
Mass
575 kg wet, ~530 kg dry
Launch date (UTC)
2025-10-03 (2 weeks ago)
Launch vehicle
FALCON 9
Launch site
Air Force Western Test Range (AFWTR)
Object type
Payload
Rocket body
Debris
Shape & HBR
Unknown
Radar Cross Section
RCS unknown

Expand to show TLE details & history
Last TLE update: 11 hours ago

TLE from 11 hours ago
0 STARLINK-35425
1 65874U 25223W   25291.01582639 -.02641205  00000-0 -24495-1 0  9994
2 65874  53.1535 240.9979 0003695  15.4240 344.6890 15.70296660  2304
Epoch: 2025-10-18T00:22Z
TLE epoch observation values (Epoch: 2025-10-18T00:22:47.400Z)
Latitude
-0.00001°
Longitude
-151.45251°
Altitude
356.562 km
Speed
7.698 km/s
True Right ascension
16h 03m 59s
True Declination
0° 00' 00"
Sunlit
Object was in daylight at epoch
Visualization orbit readout
Latitude
Unknown
Longitude
Unknown
Altitude
Unknown
Speed
Unknown
Apparent Right ascension
Unknown
Apparent Declination
Unknown
Sunlit
N/A
Visualization observer readout
Local Sidereal Time
05:51:47
Azimuth
Unknown
Elevation
Unknown
Doppler factor
Unknown
Orbital elements
Apogee altitude
360.799 km
Perigee altitude
355.821 km
Semi-major axis
6,736.447 km
Eccentricity
0.00037
Inclination
53.1535°
RAAN
240.9979°
Arg. of periapsis
15.424°
True anomaly
344.67781°
Mean anomaly
344.689°
Eccentric anomaly
344.68341°
Mean motion
3.92552 °/min
Orbital period
91.71 mins
BSTAR
-0.024495
Loading maneuver chart data...
Computing Atmospheric mass density...
Loading historical data...
Loading historical data...
Loading historical data...
Loading historical data...
Loading historical data...
Loading historical data...
Loading historical data...

Documentation

Showing up to 5 results
|